ODIN

Last updated on Sun Jun 21 2026 00:03:39 GMT+0000 (Coordinated Universal Time)

1 26702U 01007A 26171.07824256 .00171166 00000+0 10523-2 0 9990 2 26702 97.3813 212.2073 0006749 140.3393 219.8368 15.76711423389853
UTC large
Height (km)
Speed (km/s)
/
Latitude / Longitude
Inclination (degrees)
Orbital Period (minutes)
Azimuth
Elevation
Range (km)
Doppler Factor

Next 0 passes for location: London (51.5072 / 0.1276)

No passes found over London.
ODIN